GFSGL_850_temp_000.txt.gz
Temp
18 16 15 15 14 14 14 14 13 13 13 13 13 14 13 13 13 12 12 13 12 12 12 12 12 13 13 13 14 15 14 15 15 17 18 19 18 17 17 17 17 17 18
17 16 15 14 14 14 14 14 13 13 13 14 14 13 13 13 13 12 12 12 11 11 11 11 11 12 12 13 14 14 14 15 14 15 17 18 18 17 16 16 17 18 18
17 16 15 14 14 14 14 14 13 13 13 13 13 13 13 13 13 12 12 11 11 11 12 12 12 11 12 12 13 14 14 14 14 14 15 17 18 17 16 16 16 17 18
17 16 15 14 14 14 14 15 14 13 13 13 13 13 13 13 12 12 12 11 12 11 12 11 11 11 12 12 13 13 13 14 14 14 15 17 17 18 16 16 16 17 17
17 16 16 15 14 14 14 14 13 13 13 13 13 13 13 13 13 12 12 11 12 11 12 11 10 10 11 12 13 13 13 13 13 14 14 16 17 16 16 16 16 17 18
16 16 15 15 14 14 14 14 13 13 13 13 13 13 13 13 13 13 12 11 12 12 11 11 10 9 9 10 11 12 12 13 13 13 14 15 15 16 15 16 16 18 18
16 16 15 15 15 14 14 14 14 14 13 13 13 13 13 13 13 13 12 11 12 12 11 10 12 10 10 10 10 11 12 13 13 13 14 14 15 15 16 15 16 16 17
16 16 15 15 15 14 14 14 14 14 13 13 13 13 13 13 13 13 12 12 11 12 11 10 10 10 10 9 10 10 12 13 13 13 13 14 14 15 14 15 15 16 16
17 16 16 16 15 15 14 14 14 13 13 13 13 13 13 13 13 13 12 11 11 11 11 11 10 10 10 9 9 10 10 13 13 14 14 14 14 14 14 14 14 15 15
17 17 16 16 15 15 14 14 14 13 14 14 14 13 13 13 12 13 12 12 12 11 11 11 11 10 9 9 9 10 9 12 12 14 14 13 13 14 14 14 14 14 15
17 17 16 16 15 15 14 13 13 13 13 13 13 13 13 13 12 13 12 12 12 12 11 11 11 10 10 9 9 9 9 13 13 14 13 13 13 13 13 13 14 14 14
17 16 16 16 14 16 15 13 13 13 14 13 13 13 14 14 13 12 12 12 12 12 12 12 11 11 10 9 9 9 10 12 13 13 13 13 14 14 14 14 14 14 14
16 17 16 16 16 14 14 14 13 13 13 13 14 14 14 14 14 12 12 12 11 12 12 12 11 11 11 10 10 9 10 9 12 13 13 13 13 14 13 13 14 14 15
17 17 16 16 14 13 13 14 14 14 13 13 13 14 14 13 13 12 12 12 11 11 12 12 11 11 10 10 10 9 9 9 9 10 9 11 13 13 14 14 13 14 14
17 16 14 15 14 14 12 13 12 12 12 12 12 11 12 11 11 11 11 12 11 11 11 10 10 11 11 11 10 10 9 9 9 9 9 10 10 12 13 14 14 13 14
15 15 15 15 14 14 13 11 12 12 12 11 11 11 10 11 10 10 11 11 11 11 10 11 10 10 11 10 10 10 10 9 9 9 9 9 9 9 10 11 13 13 13
13 13 13 13 13 13 11 11 11 11 10 11 11 11 10 10 10 10 11 11 10 9 9 8 7 7 9 9 9 9 9 9 10 9 9 9 9 9 9 9 9 10 10
12 13 13 13 11 11 10 9 9 9 9 9 10 10 10 9 9 9 9 9 8 8 7 6 6 5 5 7 8 8 9 9 10 10 10 10 10 10 9 9 9 9 9
12 13 12 10 10 9 9 8 8 9 7 8 8 7 8 8 8 8 8 7 6 6 5 5 5 7 7 6 6 6 7 7 8 9 9 10 11 10 10 10 10 9 9
12 12 11 9 9 9 9 9 9 8 7 7 7 5 5 5 5 4 6 5 4 5 6 6 6 6 6 6 6 7 5 7 7 8 9 9 10 9 10 10 10 10 10
11 9 10 9 9 8 8 8 7 6 5 5 4 5 5 4 4 4 5 5 6 6 5 4 5 6 6 6 6 7 7 8 8 7 7 7 8 9 8 9 9 9 9
9 8 8 9 8 7 7 7 5 5 5 5 3 3 4 3 3 3 3 4 4 5 4 4 5 5 5 5 5 6 6 6 6 6 4 5 7 7 6 7 7 9 9
9 9 9 8 8 7 6 6 5 5 5 5 4 4 3 2 1 3 3 3 2 2 1 1 2 2 3 1 3 5 5 5 5 5 3 3 3 5 5 7 7 6 6
8 8 8 7 7 7 6 6 5 4 4 4 4 3 3 3 2 1 2 0 1 0 -0 -0 1 3 3 3 3 4 4 4 4 4 1 2 2 3 4 4 4 5 6
8 7 7 7 6 6 5 5 5 4 4 3 3 2 2 2 2 1 1 1 0 -0 -1 -1 -1 0 3 3 3 3 3 3 4 4 0 1 2 2 2 2 3 3 5
7 6 6 6 5 5 4 4 4 3 3 2 2 1 1 1 1 0 0 -0 -0 -1 -1 -1 -0 1 0 2 2 3 3 3 3 3 3 0 1 3 2 2 2 3 3

GFSGL_850_temp_003.txt.gz
Temp
18 18 17 16 16 15 15 15 15 15 14 14 14 14 14 14 14 14 13 13 13 13 13 13 12 12 12 12 13 14 13 14 14 15 16 17 17 18 18 17 18 18 18
19 18 17 16 16 15 15 15 14 14 14 14 14 14 14 14 14 14 13 13 13 13 12 12 11 11 11 11 12 12 13 14 14 15 15 16 17 17 17 17 17 17 18
19 18 17 16 15 15 15 15 14 14 14 14 14 14 14 14 14 13 13 12 13 12 12 11 10 10 11 10 10 12 13 13 14 14 15 16 17 17 17 17 17 18 18
20 19 18 16 15 15 15 15 15 15 14 14 14 14 14 14 14 14 13 12 12 12 11 11 10 11 10 11 10 10 12 13 13 14 14 15 15 16 17 17 16 17 18
19 18 17 17 16 15 15 15 15 15 15 14 14 14 14 15 15 14 13 13 12 11 11 11 11 11 10 10 9 10 10 11 12 14 14 14 15 15 16 17 17 17 18
18 18 17 17 16 16 16 15 15 15 15 15 15 14 15 15 15 14 14 13 12 11 11 11 12 12 11 10 10 10 10 10 11 12 14 14 15 16 16 17 17 16 16
18 18 17 17 16 16 16 15 15 15 15 15 14 14 14 14 14 14 14 13 13 11 11 11 10 11 11 10 10 10 10 10 10 11 13 13 14 15 16 16 16 17 17
18 17 17 17 16 16 16 15 15 15 15 14 14 14 14 14 14 14 13 13 12 11 12 11 11 11 11 10 10 11 10 10 10 10 11 14 14 14 16 16 16 16 16
18 17 17 17 17 17 16 16 15 15 14 14 14 14 14 14 14 13 13 12 12 12 12 12 11 11 11 10 10 11 10 10 10 10 11 14 14 14 15 15 15 15 15
18 18 18 17 17 17 16 15 15 15 14 15 15 15 14 14 14 13 14 12 12 12 11 11 11 11 11 11 10 9 9 9 9 12 13 15 14 14 15 14 14 15 15
19 18 18 17 17 16 16 15 12 14 14 14 14 14 13 13 13 12 13 13 12 12 11 12 11 11 11 10 10 9 9 9 9 13 13 13 14 14 14 14 14 14 15
18 18 18 17 17 17 16 15 14 14 14 13 13 13 13 12 13 13 12 13 12 12 11 11 11 12 11 11 10 9 9 9 9 11 12 13 14 13 14 14 14 15 15
18 18 17 16 16 15 15 14 14 14 14 13 13 14 13 14 13 13 12 12 12 11 11 11 11 11 11 12 11 10 9 9 10 9 9 13 14 14 14 14 14 14 15
17 16 16 15 15 15 14 15 15 15 14 15 14 13 13 13 14 13 12 12 11 11 11 11 10 10 11 11 10 10 10 9 8 9 9 9 11 13 14 14 14 14 14
16 16 15 16 16 15 14 14 14 13 13 13 12 11 12 12 12 12 11 11 11 11 11 10 9 10 11 11 10 10 9 9 9 8 8 9 9 10 12 13 13 14 14
16 16 16 17 16 16 15 13 13 12 12 11 12 11 11 11 11 11 11 11 11 11 10 10 9 7 8 8 9 10 9 9 9 9 8 8 9 9 9 11 12 13 13
14 15 16 15 15 15 13 11 11 11 11 11 10 11 10 10 10 10 10 10 10 10 10 9 8 7 5 6 7 8 8 9 9 9 8 9 9 9 9 9 9 9 10
14 14 14 15 13 12 11 11 10 10 9 9 9 9 9 9 9 9 9 9 9 9 8 7 6 5 5 6 6 6 7 8 9 9 10 9 9 9 9 9 9 9 10
14 15 13 12 11 11 10 10 9 9 9 9 8 8 8 6 6 6 7 7 7 6 5 5 4 4 4 4 4 5 6 6 7 7 8 9 9 10 9 9 9 9 9
13 13 12 12 10 9 10 10 10 8 8 8 7 7 6 6 5 5 4 4 4 3 4 6 6 6 6 7 7 7 7 7 7 6 6 8 8 8 9 9 9 9 9
12 11 11 10 9 9 9 8 7 7 7 6 5 6 4 4 3 3 3 3 4 4 3 3 5 6 6 6 6 7 7 6 6 6 5 5 7 8 8 8 8 9 9
11 10 10 10 10 10 9 9 8 7 7 6 4 4 4 3 3 2 2 3 3 4 3 2 2 3 2 4 5 6 6 6 5 4 4 4 5 5 6 7 7 7 8
10 10 10 10 10 9 9 9 8 8 7 7 6 5 4 3 2 3 3 2 3 3 2 2 1 2 1 1 2 5 5 6 5 2 3 3 4 4 4 5 5 6 7
9 9 9 9 9 9 9 8 8 6 7 7 6 6 5 4 3 2 2 3 3 2 2 2 1 1 2 1 4 4 4 4 5 4 2 3 3 4 4 4 4 4 4
10 9 9 9 9 8 8 7 8 7 6 6 5 5 5 4 4 3 3 3 2 2 1 1 1 -0 3 3 4 4 4 4 4 4 3 2 2 3 4 4 4 4 4
10 9 9 9 8 7 7 7 7 6 6 5 5 4 4 3 3 3 2 2 2 2 1 1 -0 -1 -1 3 3 3 3 3 3 3 3 1 1 2 2 3 3 4 4

GFSGL_850_temp_006.txt.gz
Temp
19 18 18 18 17 16 16 15 15 15 15 15 14 14 14 14 14 14 14 14 13 13 13 13 13 13 13 13 13 12 12 11 11 13 13 14 15 16 17 17 18 17 17
18 18 18 17 17 16 16 15 15 15 15 14 14 14 14 14 14 14 14 14 14 14 13 13 12 12 12 12 12 12 11 11 11 13 13 14 15 16 17 17 17 17 17
19 19 18 17 17 16 16 15 15 15 15 15 14 14 14 14 14 14 14 14 14 14 13 12 12 12 12 12 12 12 11 10 11 11 12 13 14 15 16 16 16 17 18
20 19 18 18 17 16 15 15 15 15 15 15 15 15 14 14 14 15 14 13 13 13 13 12 12 12 11 11 11 12 11 10 11 11 11 13 13 15 15 16 16 17 17
21 20 19 18 17 16 16 15 15 15 15 15 15 15 15 14 15 15 14 14 14 14 13 12 12 11 11 11 11 12 11 10 10 11 10 11 12 13 14 16 16 16 17
20 20 19 18 17 16 16 16 16 15 15 15 14 14 15 15 15 15 14 14 14 14 13 12 12 12 11 11 11 11 10 9 9 9 9 10 10 13 13 14 16 16 15
20 20 19 18 18 17 16 16 16 15 15 15 15 14 15 14 14 14 14 14 14 14 13 12 12 12 12 11 11 10 10 10 9 9 9 9 10 14 14 14 15 16 16
20 20 19 18 17 17 16 16 16 16 15 15 15 15 15 14 14 14 14 14 14 14 13 12 12 12 12 11 11 10 10 9 9 9 9 9 9 10 13 13 14 16 16
20 20 19 18 17 17 16 16 16 15 16 15 15 15 14 14 13 13 13 13 12 13 12 12 12 12 11 11 11 11 10 10 9 10 9 9 10 11 11 13 14 14 15
20 20 19 18 17 17 17 16 16 16 15 16 15 14 14 14 14 14 13 13 13 12 12 12 12 12 11 11 11 10 10 9 10 9 8 11 12 14 14 13 15 14 14
20 19 19 18 17 17 17 16 16 16 16 15 14 14 14 14 14 13 13 12 12 11 12 12 11 11 11 11 11 10 9 9 9 9 8 10 12 13 15 15 15 14 14
20 19 19 18 18 17 17 16 15 16 15 15 13 14 14 13 13 13 12 11 11 11 11 11 11 11 11 10 10 10 10 10 9 8 8 8 12 13 14 14 15 15 15
19 19 19 18 18 17 17 16 16 15 14 13 13 14 13 13 13 12 12 10 11 11 11 10 10 10 10 11 10 10 10 9 9 9 8 9 9 12 14 14 14 14 15
19 18 17 17 17 16 16 16 15 14 14 14 14 13 13 12 12 11 11 11 11 11 11 11 10 10 10 10 10 10 10 9 8 8 9 8 9 11 13 13 14 15 14
17 16 16 16 16 17 15 13 14 15 14 14 13 13 12 12 12 11 11 11 11 11 11 10 9 9 9 9 9 9 9 9 9 9 9 9 9 9 10 13 13 14 14
15 16 16 16 16 16 14 14 14 14 13 13 12 11 11 11 11 10 11 10 10 10 10 9 9 8 6 6 8 8 8 8 9 9 9 9 8 9 9 9 10 10 11
15 16 16 16 16 16 14 13 12 13 12 11 11 10 10 9 10 10 11 10 9 10 8 8 8 6 5 6 6 7 7 7 7 9 9 9 9 9 9 9 9 9 9
14 15 15 15 15 14 13 12 11 10 10 9 10 9 9 8 9 10 10 9 8 7 8 7 5 5 6 6 6 6 7 7 7 7 8 8 9 9 9 9 9 9 9
14 15 14 14 13 13 11 11 11 11 9 8 8 8 7 7 7 8 8 7 6 6 7 6 6 6 6 6 6 7 6 6 7 7 7 8 8 9 9 8 9 9 9
13 14 14 13 12 11 10 9 9 9 9 7 7 7 7 7 7 6 5 5 5 6 6 6 5 6 6 6 6 7 7 6 6 6 6 7 7 8 8 8 8 9 9
13 12 13 11 10 10 9 9 9 9 9 8 6 6 6 6 5 4 4 3 4 4 3 3 4 3 5 6 6 6 6 6 5 5 5 6 6 6 6 7 8 8 8
12 11 11 11 10 10 10 10 9 9 9 8 7 6 5 5 4 3 3 3 4 4 4 3 3 3 2 3 5 5 6 6 5 4 4 5 5 5 5 6 7 7 8
11 11 10 10 10 10 10 10 10 9 9 8 8 6 5 4 3 3 3 3 4 3 3 2 2 2 2 2 4 5 5 5 5 3 3 3 4 4 5 5 5 6 7
10 10 10 10 10 9 9 10 10 9 8 8 8 7 7 6 4 3 3 4 3 3 2 2 2 3 4 4 4 4 4 4 4 3 3 3 4 4 4 5 5 5 5
11 11 11 10 10 10 9 9 9 9 8 8 7 6 6 5 5 5 4 4 3 3 2 2 1 2 4 4 4 4 4 4 4 4 3 3 3 4 3 4 4 4 4
11 11 11 10 10 9 9 8 9 8 7 7 6 6 5 5 5 4 3 3 3 3 2 1 1 1 2 3 3 3 3 3 3 3 3 3 4 3 3 3 3 3 4

GFSGL_850_temp_009.txt.gz
Temp
21 20 19 18 18 19 18 18 17 16 15 15 15 15 15 14 14 14 14 14 14 14 14 13 13 14 14 13 13 13 12 11 11 12 11 12 12 12 13 14 15 15 16
21 20 18 18 18 18 17 17 16 15 15 15 15 15 14 14 14 14 14 14 14 13 14 13 13 13 13 12 13 12 12 11 11 10 11 12 12 13 13 13 14 15 15
21 20 19 18 19 18 17 17 16 16 16 15 15 15 15 15 14 14 14 14 14 14 14 13 13 12 12 12 12 12 11 11 11 10 10 10 11 12 13 13 14 15 15
21 20 19 19 19 18 18 17 16 16 16 15 15 15 15 14 14 14 14 14 14 14 14 13 13 12 12 12 12 11 11 11 10 10 9 10 10 11 13 12 13 14 15
21 21 20 20 19 18 18 18 17 17 16 15 15 15 15 15 14 14 14 15 14 14 14 13 13 12 12 11 11 11 11 11 10 9 8 9 9 9 10 12 12 13 15
21 20 20 20 20 19 19 18 17 17 16 15 15 15 15 15 14 14 14 14 14 14 13 13 13 12 11 11 11 11 11 10 10 9 9 9 10 9 9 9 10 11 13
21 20 20 20 20 19 19 18 17 16 16 16 16 15 15 15 14 14 14 14 13 14 13 13 13 12 12 12 11 11 11 10 10 9 9 9 8 9 8 9 10 10 13
21 20 21 21 20 20 18 17 16 16 16 16 16 16 15 15 14 14 14 14 13 13 14 13 12 12 12 11 11 11 11 11 11 10 9 9 9 9 8 9 9 10 12
20 19 21 21 20 19 18 17 16 16 16 16 16 15 15 14 14 14 13 13 14 13 12 13 12 12 11 11 11 11 11 10 11 11 10 10 10 9 9 9 9 9 11
20 21 22 20 19 18 17 17 16 16 16 16 15 15 15 15 14 13 14 14 13 13 13 13 12 11 11 10 10 10 10 10 11 10 10 11 9 9 11 11 9 10 12
20 22 21 20 19 18 18 17 17 16 16 15 16 15 15 14 13 13 13 13 13 13 13 12 11 10 10 10 10 10 9 10 10 10 9 9 8 8 10 12 11 12 13
21 20 20 19 19 18 18 17 16 16 14 13 14 15 14 13 13 13 13 12 12 12 12 10 10 10 10 10 10 10 9 9 10 10 9 8 8 8 11 11 12 13 13
20 19 19 18 18 18 17 16 16 15 15 14 14 14 13 13 12 12 11 11 12 12 11 10 10 10 9 9 10 9 9 9 9 9 8 8 8 8 9 12 12 13 14
15 17 18 18 17 17 16 15 14 15 15 14 14 13 12 13 12 12 11 11 11 11 10 10 9 9 9 9 10 9 8 8 9 8 8 9 9 8 8 11 13 13 13
15 17 17 16 16 16 16 15 15 15 15 14 13 13 12 12 11 11 11 11 11 10 10 9 9 8 9 10 7 8 7 8 9 9 9 9 9 8 8 8 10 13 13
17 17 16 16 16 16 15 15 15 14 13 12 12 12 11 11 10 11 11 10 9 9 9 9 8 9 9 7 8 8 8 8 8 8 9 9 8 8 8 9 8 8 10
16 16 16 15 15 15 15 15 14 12 12 11 11 10 10 9 10 10 10 9 8 8 8 8 8 7 7 7 7 7 7 7 7 7 8 8 9 8 9 8 8 9 9
15 16 15 15 15 14 13 12 12 12 11 10 9 9 8 9 9 8 8 8 8 8 8 7 7 7 8 8 7 7 8 8 7 7 6 7 8 8 9 9 8 8 9
14 14 14 14 14 13 12 12 11 10 9 9 9 8 7 7 7 7 7 7 8 7 6 6 7 6 6 7 7 7 7 8 8 7 6 6 7 8 8 8 9 9 9
14 14 13 13 13 13 12 12 11 10 9 8 8 7 7 7 6 6 7 6 6 6 5 5 5 5 5 6 6 7 7 7 7 7 6 6 6 6 7 8 8 8 9
13 13 13 12 12 12 11 11 10 10 9 8 8 8 7 6 5 5 4 4 4 4 3 3 3 4 5 5 6 6 6 6 6 6 5 5 5 5 6 6 7 7 8
12 12 12 12 12 11 11 10 9 9 9 9 9 8 7 6 5 4 3 3 3 3 3 3 3 3 4 5 5 5 5 5 4 5 5 5 5 5 5 6 6 7 7
12 12 11 11 10 10 10 10 10 10 9 8 8 7 7 6 5 5 4 3 3 3 3 3 3 3 4 4 4 5 4 4 4 4 4 4 4 4 4 4 5 6 6
11 11 11 10 10 10 10 10 9 9 9 9 8 7 7 6 5 4 4 3 3 3 3 3 3 3 4 4 4 4 4 4 4 3 4 4 4 4 4 4 4 4 5
11 11 11 10 10 10 10 9 9 9 9 8 8 7 6 6 5 5 4 4 3 3 2 2 3 3 3 3 4 4 4 3 3 4 4 4 4 4 5 4 4 4 4
10 11 11 11 10 10 10 9 9 8 8 8 7 7 6 6 5 5 4 3 3 3 2 2 2 3 2 2 3 3 3 3 2 3 4 3 4 4 4 3 3 3 3

GFSGL_850_temp_015.txt.gz
Temp
23 23 22 21 21 20 21 20 19 18 18 17 16 15 15 15 14 14 14 14 13 13 13 13 13 13 13 13 13 12 12 11 11 12 12 12 13 13 13 13 13 13 13
22 22 22 21 21 20 20 20 19 19 18 17 16 16 15 15 14 14 14 14 14 14 14 13 14 13 13 13 13 12 11 11 11 11 11 12 12 12 12 12 12 12 13
23 21 21 21 20 20 20 20 19 19 18 17 17 16 16 15 14 14 14 14 14 14 14 14 14 13 13 13 12 12 11 11 10 10 11 11 12 12 12 12 12 12 12
23 21 21 21 20 20 20 20 20 19 18 17 17 17 16 15 14 14 14 14 14 14 14 14 14 13 13 13 12 12 11 11 10 10 10 10 11 11 11 11 11 11 12
23 22 21 20 19 20 20 20 20 19 18 17 16 16 16 15 14 14 14 14 14 14 14 14 13 13 13 12 12 12 11 11 10 10 10 10 11 10 10 10 10 9 9
21 21 17 16 17 17 18 19 19 19 18 18 16 16 15 15 15 14 14 14 14 14 14 13 13 13 12 12 12 12 12 11 11 10 10 10 10 10 10 9 9 8 7
19 19 18 16 16 18 17 17 19 20 18 18 16 15 15 15 15 15 14 14 14 13 13 13 13 13 12 12 12 12 11 11 10 10 9 10 10 10 10 9 8 7 7
18 18 17 17 16 18 17 18 18 20 18 18 16 16 15 15 15 15 14 14 14 13 13 13 13 12 12 12 12 12 11 11 10 10 10 10 9 10 10 9 8 8 8
19 19 21 21 17 18 18 18 18 18 19 17 17 16 16 15 15 14 14 14 14 13 13 13 12 12 11 11 11 11 10 10 10 11 10 9 9 10 10 10 8 8 8
19 18 18 18 17 18 19 19 19 19 18 17 17 16 15 15 14 14 14 13 13 13 13 13 12 11 11 11 10 10 9 10 10 11 11 10 10 10 11 9 8 7 7
20 19 18 18 17 17 16 15 16 17 18 16 17 16 15 14 14 14 13 13 13 13 13 12 12 12 11 10 10 9 9 9 10 8 8 9 10 10 9 9 8 8 8
20 20 19 18 17 16 17 17 16 15 13 15 16 15 15 14 14 14 13 13 12 12 12 12 12 11 11 10 9 9 9 9 7 7 9 9 9 9 9 9 8 8 9
18 17 17 16 16 17 17 17 17 15 13 15 15 15 15 14 14 13 12 12 12 11 11 11 11 10 10 9 8 8 8 7 7 8 8 9 9 9 9 8 8 8 9
17 16 16 17 17 19 18 16 15 15 14 15 15 15 14 14 13 12 12 11 11 10 11 11 10 10 9 8 8 8 7 7 8 8 8 8 9 9 9 9 8 8 9
16 16 16 16 17 18 15 14 15 14 15 15 14 14 13 13 12 12 11 11 10 10 10 10 10 9 8 8 8 7 8 8 8 7 8 8 9 9 9 9 8 8 8
16 17 17 17 16 15 15 15 14 14 14 13 13 12 12 12 11 11 10 10 10 10 10 9 8 8 8 8 7 7 7 7 7 8 8 7 8 8 8 9 9 9 8
16 16 16 15 15 15 15 15 14 14 13 13 12 12 11 11 10 10 10 10 10 10 9 8 7 7 7 7 7 7 7 7 7 7 7 7 7 8 8 8 9 9 9
16 16 16 15 15 14 14 14 13 13 13 12 12 11 10 9 8 8 9 9 8 7 7 7 7 7 7 7 6 6 6 6 7 7 7 7 7 7 8 8 8 8 8
17 16 16 16 15 14 14 13 13 12 12 11 11 10 9 9 8 8 7 7 7 6 6 6 6 6 6 6 6 6 6 6 6 6 6 6 6 7 7 8 8 8 9
15 15 15 15 14 13 13 13 13 12 11 10 10 9 9 9 8 8 7 6 5 5 5 5 5 5 5 5 5 6 6 5 5 5 5 5 6 6 6 7 8 8 8
14 14 14 13 13 13 13 12 12 11 11 10 10 9 8 8 7 7 6 5 4 4 4 4 4 4 4 4 5 5 5 4 4 4 5 5 5 5 6 6 7 7 8
13 13 13 13 13 13 12 12 11 11 10 10 9 8 8 7 7 7 6 4 3 3 3 3 3 3 4 4 4 4 4 4 4 4 4 4 5 5 5 6 6 7 7
12 12 12 12 12 12 11 10 10 9 9 9 9 9 9 8 7 6 6 4 3 3 3 3 3 3 4 4 4 4 4 4 4 4 4 4 4 4 5 5 6 6 6
12 12 12 11 11 11 10 10 9 9 10 9 9 9 9 7 6 6 6 4 3 3 3 3 3 3 4 4 4 4 4 4 4 4 4 4 4 4 4 5 5 5 6
11 11 10 10 11 10 10 9 9 10 10 9 9 9 8 6 6 6 5 5 4 3 3 3 3 3 3 3 3 3 3 3 3 3 4 3 3 4 4 4 4 4 5
10 10 10 10 10 10 10 10 10 10 9 9 9 8 8 7 6 6 5 5 4 3 3 3 2 2 2 2 3 3 3 3 3 3 3 3 3 3 3 3 3 3 4

GFSGL_850_temp_021.txt.gz
Temp
24 24 23 22 21 21 22 20 21 19 19 18 17 17 16 16 15 15 15 14 14 14 14 14 14 14 13 13 13 13 12 12 11 13 12 11 14 13 13 13 13 13 13
25 24 24 22 21 21 20 21 20 19 18 17 17 17 17 16 15 15 14 14 14 14 14 14 14 13 14 13 13 13 13 12 11 11 12 11 11 13 12 13 13 13 13
24 24 23 23 21 20 20 20 19 18 18 18 17 17 17 16 16 15 15 14 14 14 14 14 14 14 14 14 13 13 12 12 11 11 11 11 11 12 13 12 11 11 12
23 23 23 23 22 20 19 20 19 19 17 18 18 18 17 16 16 15 15 15 14 15 15 14 14 14 14 13 13 13 13 12 11 11 12 11 11 11 10 10 11 11 11
22 21 22 22 22 20 19 19 20 19 18 18 18 17 16 16 16 15 15 15 15 15 15 14 14 14 14 14 13 13 13 11 11 11 11 11 12 11 11 11 10 10 11
22 22 22 22 21 20 19 18 19 19 18 16 17 17 16 17 16 15 15 15 15 15 15 14 14 14 13 13 13 13 13 12 11 11 11 11 11 10 10 10 10 10 10
22 22 22 21 20 20 19 18 17 18 16 17 17 17 16 16 16 16 15 15 15 15 15 14 14 14 13 13 13 13 13 12 11 11 10 10 9 9 9 8 8 8 8
23 22 21 20 19 17 18 18 16 17 16 16 16 17 16 16 16 16 15 15 15 14 14 14 14 13 13 13 13 13 12 12 11 10 9 10 10 10 10 9 8 8 8
24 23 21 20 19 17 17 17 15 15 16 16 16 17 16 16 16 15 15 13 12 13 13 14 13 13 13 12 12 12 12 11 10 10 10 9 10 10 9 8 9 8 9
24 23 22 20 18 17 16 15 14 15 15 14 14 15 16 17 17 15 16 14 12 12 11 12 13 13 12 12 11 11 11 10 10 10 9 9 10 10 10 9 8 8 8
25 23 22 21 18 17 16 15 14 14 14 15 15 16 17 17 17 16 16 14 13 11 11 12 12 12 12 11 11 11 10 10 10 9 9 7 7 8 8 8 8 7 8
22 22 22 20 17 16 15 15 14 14 14 15 16 17 17 17 15 15 14 14 13 12 11 12 12 12 11 11 10 10 9 9 9 8 7 7 7 8 8 9 10 10 9
19 21 21 18 17 16 15 15 14 14 14 15 16 16 16 16 15 15 14 14 13 12 12 12 11 11 11 10 10 9 9 9 8 6 7 7 7 9 10 9 10 10 10
21 21 18 17 15 15 15 14 14 14 15 15 15 15 15 15 14 14 14 13 12 11 11 11 11 10 10 9 9 8 8 8 7 7 7 7 8 8 8 8 9 9 9
20 17 16 15 15 15 15 14 15 15 15 15 15 15 14 14 14 14 13 12 11 11 11 11 10 10 9 8 8 8 8 7 6 7 6 7 7 7 7 8 8 8 8
17 16 15 15 14 14 14 15 15 15 15 14 14 14 13 13 13 13 12 11 11 11 10 10 8 9 8 7 7 7 7 6 6 7 7 6 6 6 6 8 7 7 8
15 15 15 15 14 14 14 14 14 14 14 14 13 13 13 13 13 12 11 11 10 10 9 8 7 7 7 7 7 7 6 6 7 6 6 6 5 5 5 5 6 8 8
15 15 15 15 15 14 14 14 14 14 13 13 12 12 12 11 11 10 10 9 9 8 8 7 6 7 6 6 6 6 6 6 6 6 5 5 4 4 5 5 5 7 8
15 15 15 14 14 14 14 14 14 13 13 13 12 11 10 10 9 9 9 9 7 6 6 6 6 6 5 5 5 5 6 6 6 5 4 4 4 4 5 5 5 6 7
15 15 15 14 14 14 14 13 13 13 12 11 10 10 10 9 9 8 8 8 7 5 5 4 5 5 5 5 5 5 5 4 4 4 4 4 4 4 5 5 5 6 7
15 14 14 14 14 13 13 13 12 12 11 11 10 10 10 9 8 8 8 7 6 4 4 3 4 4 4 5 5 5 4 4 5 5 4 3 3 4 4 4 5 5 6
14 13 13 13 13 13 12 12 12 11 10 9 9 10 9 9 7 8 7 7 6 5 4 3 3 4 4 4 4 4 4 4 4 4 4 4 3 4 4 4 4 5 5
13 13 13 13 13 12 12 12 11 11 11 10 9 9 9 9 8 8 7 6 6 5 4 4 3 4 4 4 4 4 4 4 4 4 4 5 3 4 4 4 4 4 5
12 12 12 12 12 12 11 11 11 10 10 10 9 9 8 8 7 8 7 6 6 5 4 4 4 4 4 4 4 4 4 4 4 4 4 4 3 3 3 4 4 4 4
12 11 11 11 11 11 11 9 9 10 10 9 9 10 9 9 9 8 7 7 6 5 5 4 4 4 4 4 4 4 4 4 4 4 4 4 3 3 3 3 3 4 4
10 10 10 10 9 9 10 9 9 9 10 10 10 9 10 9 9 8 7 7 6 5 4 4 4 3 4 3 3 3 3 3 3 3 4 2 2 2 2 3 3 3 3

GFSGL_850_temp_024.txt.gz
Temp
25 24 23 22 21 21 22 22 21 21 21 20 19 19 18 17 16 16 15 15 14 13 13 13 13 13 14 15 15 14 14 15 15 15 15 15 14 13 12 12 12 12 12
26 25 24 23 22 22 22 22 21 21 21 20 18 19 18 17 16 14 15 14 14 13 13 13 13 14 13 13 14 14 14 14 14 14 14 14 13 13 13 12 12 12 12
22 22 22 22 21 23 22 22 21 21 21 19 20 19 18 18 17 16 16 15 14 14 14 13 14 14 14 14 13 14 15 14 14 13 13 13 13 13 13 12 12 12 12
23 22 20 19 22 24 23 22 21 22 21 21 21 20 18 18 17 16 16 16 15 14 14 14 14 14 14 14 13 13 13 13 13 13 14 13 13 13 13 13 13 14 14
23 22 20 19 19 21 21 22 21 21 21 20 20 19 18 17 18 17 15 16 15 14 14 14 14 14 15 14 14 13 13 13 14 14 14 14 13 13 13 13 13 13 13
22 21 20 19 20 20 21 21 20 20 20 19 20 18 17 17 16 16 17 16 15 14 14 14 14 14 14 14 14 14 13 13 13 12 12 12 11 12 12 12 12 12 12
22 20 19 20 21 20 17 19 19 19 18 18 18 17 18 17 16 17 16 16 14 14 14 14 13 13 13 13 14 14 13 13 13 12 11 11 11 11 10 10 9 10 10
21 22 20 21 22 21 18 16 18 18 17 16 16 17 15 15 14 17 16 15 15 14 14 15 14 13 12 12 13 13 12 11 11 11 10 10 10 9 9 9 8 8 8
21 21 23 23 21 20 19 17 15 15 15 14 14 15 15 14 14 15 16 16 15 15 14 15 14 13 12 12 12 12 12 11 11 11 10 10 10 10 10 8 8 8 9
24 23 23 22 20 18 18 16 16 15 15 14 14 14 14 14 14 16 16 16 15 15 15 14 13 13 12 12 12 12 11 11 11 10 9 9 9 9 9 9 9 9 9
19 21 23 23 23 21 19 16 17 15 14 14 14 14 14 14 14 16 16 16 16 15 15 15 13 13 12 11 11 11 10 11 11 9 10 11 11 10 11 10 9 9 10
25 25 24 22 20 16 18 16 16 16 15 14 14 14 14 14 14 16 17 16 14 14 14 12 12 12 11 11 11 11 11 10 9 10 10 11 11 10 10 9 9 9 8
24 23 22 20 18 17 17 15 15 15 15 14 14 14 14 13 14 15 16 15 14 14 14 12 12 11 11 11 11 11 10 9 9 10 10 10 10 9 8 9 9 9 9
21 19 17 16 19 16 15 15 15 14 14 14 14 13 13 13 14 15 15 15 14 14 13 12 11 11 11 10 9 9 8 9 8 8 9 9 9 9 9 9 9 9 9
17 17 18 17 16 15 15 15 14 14 14 14 14 14 13 14 15 15 14 12 12 12 11 10 10 10 10 10 9 9 8 8 8 8 8 8 8 9 9 9 8 9 8
16 16 15 15 15 14 15 15 15 15 15 15 14 14 15 14 14 13 13 13 12 11 11 11 11 11 11 11 10 9 9 8 8 7 7 8 8 8 8 8 8 8 8
16 15 15 15 15 15 14 14 14 14 15 15 14 14 14 14 13 13 12 12 11 11 11 11 11 11 10 9 9 8 8 8 7 7 7 7 7 8 8 8 8 8 8
15 15 15 15 15 14 14 14 14 13 13 14 13 13 13 12 12 12 11 11 10 10 10 11 10 9 8 8 8 8 7 7 7 7 7 7 7 7 8 8 8 8 7
15 15 15 15 15 14 14 14 14 13 13 11 13 12 12 11 11 11 11 10 10 10 10 9 9 8 8 7 6 6 5 6 6 6 7 7 7 7 8 8 8 8 7
14 15 15 15 14 14 14 14 14 13 13 12 11 11 11 11 10 9 9 9 9 9 9 8 7 7 6 5 5 5 5 6 6 6 6 6 7 7 7 8 8 8 8
15 14 14 15 14 14 14 14 14 14 13 13 13 11 10 10 11 10 10 9 8 8 7 7 7 6 5 5 5 5 5 6 6 6 6 6 6 7 7 7 8 8 8
15 15 15 15 15 14 14 14 14 14 13 13 12 10 10 10 11 10 9 8 8 7 7 6 6 6 5 5 5 5 5 5 5 5 5 5 6 6 7 7 7 8 8
15 15 15 15 14 14 13 14 14 14 13 13 12 11 9 9 10 10 9 8 8 7 6 6 5 5 4 4 4 4 4 4 4 4 4 5 5 5 6 7 7 7 7
14 14 14 14 13 13 14 13 13 13 12 11 11 11 10 10 10 10 9 8 7 7 6 5 5 4 4 4 3 3 3 4 4 3 4 4 5 5 6 6 6 6 7
14 13 13 14 13 12 13 12 12 11 11 11 11 11 11 11 10 10 9 8 7 6 6 5 5 4 4 4 3 3 4 4 5 5 4 4 4 4 5 6 6 6 6
13 13 13 13 13 12 12 12 12 11 12 11 11 12 12 11 11 10 9 8 8 7 6 5 5 4 4 4 3 4 4 4 4 5 4 3 4 5 5 5 5 6 6

GFSGL_850_temp_027.txt.gz
Temp
23 23 23 22 21 21 20 20 20 19 19 20 21 21 20 19 19 18 20 17 15 15 14 15 15 14 14 15 16 15 15 15 15 16 16 16 15 14 14 14 14 13 13
22 24 24 23 23 22 22 20 20 19 21 21 22 21 20 19 19 19 18 16 15 14 14 14 14 15 14 15 14 15 15 16 15 15 15 14 15 14 14 14 14 14 14
23 23 22 24 23 23 23 22 21 21 22 22 22 21 20 19 19 19 18 16 15 15 15 14 14 14 14 15 14 14 15 15 15 15 15 15 15 15 14 14 13 13 13
24 23 22 22 23 23 21 22 22 22 23 22 22 22 20 19 18 18 17 17 15 15 14 14 15 15 15 15 14 14 14 14 14 14 15 15 15 15 14 13 13 13 14
25 24 23 22 21 20 20 20 20 21 22 21 21 21 20 18 16 17 17 17 16 15 14 15 15 15 15 15 14 14 14 14 14 15 15 15 15 14 13 13 13 14 14
26 25 23 22 21 20 19 19 18 18 18 19 20 20 20 17 16 18 18 17 15 14 14 15 15 14 14 15 14 13 13 13 13 13 13 13 13 12 13 13 13 12 12
25 24 23 22 21 20 19 19 18 17 18 19 19 19 18 15 17 18 18 16 15 15 15 15 15 15 15 15 14 13 12 12 13 13 12 12 12 12 11 11 11 11 11
24 23 22 21 20 19 19 18 18 17 16 16 16 16 16 15 16 17 17 16 15 15 14 14 15 15 14 14 14 13 13 12 12 12 12 12 11 11 11 10 10 10 10
23 22 21 20 19 18 19 19 18 17 16 16 15 15 15 15 15 16 16 14 14 15 15 15 15 15 15 14 13 13 13 12 12 12 12 12 11 11 11 10 9 10 10
22 21 20 20 19 18 18 17 17 17 16 16 15 15 15 15 15 15 15 14 14 14 14 15 15 15 14 14 13 12 12 11 11 12 12 10 11 11 11 11 11 10 10
21 21 20 19 18 18 18 17 17 17 16 15 15 15 15 15 15 15 15 15 15 14 14 15 15 15 14 14 13 12 12 11 11 11 10 11 12 12 12 12 11 10 10
21 20 19 18 18 18 18 17 16 17 16 15 15 15 15 15 15 15 15 15 14 14 14 14 14 14 14 13 12 12 12 11 11 10 11 12 12 12 12 11 11 10 10
20 19 18 18 17 17 17 16 16 16 15 15 15 15 15 15 15 14 14 15 15 15 14 14 14 14 13 12 12 11 11 10 9 11 12 12 12 11 10 10 10 10 10
19 18 18 18 17 16 16 16 15 15 15 15 15 15 15 14 14 15 15 15 15 15 14 13 13 12 12 11 11 10 10 9 10 10 10 10 10 10 10 10 10 10 10
17 17 17 16 16 15 15 15 15 15 15 15 15 14 14 14 15 15 15 15 15 14 12 12 12 11 11 11 11 11 10 10 10 10 10 10 10 10 10 10 10 10 10
17 16 17 17 17 15 15 15 15 15 15 15 15 14 15 14 15 14 14 13 12 13 12 12 13 14 13 12 11 11 11 10 10 9 9 9 9 9 9 9 10 10 10
17 16 17 17 18 17 16 15 15 15 15 15 15 15 14 14 14 14 13 13 12 12 12 12 13 13 12 12 11 11 11 10 9 8 8 9 9 9 9 9 10 10 10
18 17 18 18 18 17 17 17 16 14 14 15 15 14 14 13 13 13 12 12 12 12 12 12 13 13 12 11 11 10 10 9 9 9 8 9 9 9 9 9 9 9 9
17 18 18 18 17 17 17 17 17 16 15 13 15 14 13 13 12 12 13 12 12 13 13 13 12 11 11 10 9 8 8 7 7 7 8 8 9 9 9 9 9 9 10
17 17 18 18 16 16 17 17 17 16 15 14 12 11 12 12 12 12 11 11 11 11 12 11 10 10 9 8 8 7 7 8 8 8 8 8 8 8 9 9 9 9 10
17 16 17 17 16 17 17 17 17 16 16 15 14 13 13 12 13 13 12 11 10 11 10 9 9 8 8 7 7 7 8 8 8 8 8 8 8 8 8 9 9 9 10
17 17 17 18 17 16 16 16 16 16 16 15 14 13 13 12 13 13 12 11 10 10 9 9 8 8 8 7 7 7 7 7 7 7 7 7 7 8 8 8 9 9 9
18 17 17 17 16 15 16 16 16 15 15 15 14 13 12 12 12 12 11 11 10 10 9 8 8 7 7 6 6 6 6 7 6 5 5 6 7 7 7 8 8 8 8
15 16 15 15 15 15 15 15 15 14 14 14 14 12 12 12 12 12 11 11 10 9 9 8 7 7 7 5 6 5 5 5 5 4 5 5 6 6 7 7 8 8 8
17 16 16 15 15 15 15 15 14 14 14 14 14 13 12 12 11 11 10 10 10 9 9 8 7 7 5 5 5 5 5 5 5 6 6 4 6 6 7 7 7 8 8
16 15 16 15 14 14 14 14 13 13 12 13 12 12 13 12 11 11 11 10 11 10 9 8 7 6 6 5 4 4 5 5 6 6 5 5 6 6 5 6 7 8 8

GFSGL_850_temp_030.txt.gz
Temp
23 24 23 23 23 23 21 21 21 21 21 21 21 21 21 20 19 18 18 18 17 17 17 16 15 15 16 16 15 15 15 15 15 16 16 15 16 15 15 15 15 15 14
23 23 24 23 23 22 23 21 21 21 21 20 20 21 21 20 20 19 18 17 16 17 18 18 16 15 15 15 15 15 15 15 15 15 15 15 15 15 15 15 14 14 14
22 23 23 23 23 23 24 23 21 21 21 21 21 21 21 21 20 20 19 18 18 17 18 18 17 15 15 15 15 15 15 15 15 15 14 14 15 15 15 14 14 14 14
23 23 23 22 23 24 24 23 22 22 22 22 21 21 21 21 20 19 19 18 18 18 18 17 16 15 16 15 15 15 15 15 15 14 14 14 15 15 15 14 14 14 14
24 23 23 23 23 23 22 21 21 21 21 21 21 20 20 20 20 19 18 18 18 18 17 17 16 16 16 15 15 15 15 15 15 15 14 14 14 14 14 14 13 13 13
26 25 24 23 22 22 21 20 20 20 20 20 20 19 19 19 19 18 17 17 17 17 17 15 16 15 15 15 15 15 15 15 14 14 14 13 13 13 13 13 12 12 12
27 26 25 24 23 22 21 21 20 20 19 19 18 17 17 18 19 17 16 17 16 16 16 16 16 15 15 15 16 15 15 14 13 13 13 14 12 12 12 12 12 11 11
27 26 25 24 23 22 21 21 20 19 19 18 17 16 16 17 18 16 16 17 16 16 15 15 16 15 16 16 15 15 15 14 13 12 13 13 13 12 12 11 11 11 11
27 26 25 24 22 22 22 21 20 19 18 18 17 16 16 16 16 16 16 15 15 15 15 15 15 16 16 15 15 14 14 14 13 13 12 12 12 12 12 12 12 11 11
26 25 24 23 22 22 22 20 19 19 18 18 17 16 16 16 15 15 15 15 15 15 14 14 15 15 15 15 15 14 14 13 12 12 12 12 12 12 12 12 12 11 11
25 24 23 21 21 21 20 19 18 18 18 17 16 16 15 16 16 15 14 14 14 14 14 14 15 15 15 15 14 13 12 12 12 12 12 12 12 12 12 12 12 11 10
23 22 21 21 20 19 20 20 20 19 17 17 16 16 16 15 15 15 14 14 14 14 14 14 14 15 14 14 13 13 12 12 12 11 11 12 12 12 12 12 11 11 11
21 21 20 20 19 19 18 18 17 17 18 17 16 16 16 16 15 15 15 14 14 14 14 15 15 15 13 14 13 12 12 12 11 11 10 10 11 11 11 11 10 10 10
20 20 19 19 19 18 17 17 16 17 16 16 15 15 15 15 15 15 15 15 15 15 15 15 13 13 13 13 12 12 12 11 11 11 10 10 10 10 10 10 10 10 10
20 19 18 17 17 16 16 16 16 15 15 15 15 15 15 16 15 16 15 15 15 14 14 14 13 13 14 13 12 12 11 11 10 10 10 10 10 9 9 9 9 9 10
18 18 17 17 16 16 16 16 15 15 15 15 15 16 15 15 15 15 15 15 15 14 13 12 12 12 13 13 12 12 11 11 10 10 10 9 9 9 9 9 9 10 9
21 18 17 16 16 17 16 15 16 15 15 14 15 15 15 15 15 15 14 14 13 13 13 13 13 13 13 13 12 11 11 11 10 10 9 9 9 9 9 9 9 9 10
17 17 18 17 17 16 16 16 16 15 15 15 14 15 15 14 14 14 13 13 13 13 13 13 13 13 13 12 11 11 11 10 9 9 9 8 9 9 9 9 9 9 9
18 18 18 18 18 17 17 16 16 15 14 15 15 14 14 13 13 13 13 13 12 13 13 13 13 12 12 11 10 10 9 9 8 8 8 8 9 8 9 9 9 9 9
18 18 18 18 18 17 17 18 18 16 15 15 15 15 14 13 13 13 12 12 11 12 12 11 11 11 10 9 9 8 8 8 8 8 8 8 8 8 8 8 9 9 9
18 18 18 18 17 17 17 18 18 17 16 15 15 15 14 14 13 13 12 12 11 11 11 10 10 9 9 8 8 7 7 8 8 8 8 7 7 7 8 8 9 9 9
18 17 18 18 18 18 17 17 17 17 16 16 15 14 14 14 13 13 13 12 12 11 10 9 9 9 9 8 8 7 7 8 8 7 7 6 7 7 7 8 8 9 8
17 18 17 17 17 17 17 17 16 16 15 15 15 14 14 13 13 13 12 12 11 11 10 9 8 8 8 7 7 6 6 7 7 6 5 6 6 7 7 7 8 8 8
16 16 16 16 16 16 15 15 15 15 15 15 14 14 14 13 13 13 12 11 11 11 10 9 8 8 7 7 6 6 6 6 6 6 6 6 6 6 7 7 8 8 8
17 16 15 15 15 15 15 14 15 15 15 15 14 14 13 12 12 12 12 11 11 11 10 9 8 8 7 7 6 6 6 6 6 6 6 6 6 6 6 7 7 7 8
17 16 15 15 15 15 15 14 14 14 14 14 14 14 13 12 12 12 12 11 11 11 10 10 9 8 7 6 6 5 5 6 6 6 6 6 5 6 6 6 6 7 7

GFSGL_850_temp_033.txt.gz
Temp
24 24 24 23 23 22 22 22 22 21 21 21 21 21 21 21 21 21 19 19 18 17 17 17 16 17 16 16 16 16 16 16 15 16 16 15 15 15 15 15 15 15 15
25 25 24 24 23 23 22 22 22 22 21 20 20 21 21 21 21 21 20 19 18 18 17 16 16 17 16 17 16 15 15 15 15 15 15 16 15 15 15 15 15 15 14
26 25 25 24 23 23 24 23 22 22 22 21 21 21 21 21 20 21 20 19 19 19 18 17 17 17 17 17 16 16 15 15 15 15 15 15 15 15 14 15 14 14 14
27 26 25 25 24 24 24 23 22 22 21 21 22 22 21 21 20 20 20 19 18 18 18 18 17 17 17 17 16 16 15 15 15 15 15 15 14 15 14 14 14 14 14
27 26 26 26 25 24 24 24 23 22 21 21 21 21 20 20 20 19 20 19 18 18 18 16 17 17 17 16 16 16 16 15 15 15 15 14 14 14 14 14 13 13 13
28 27 26 26 25 24 24 23 23 22 21 20 20 20 20 19 18 18 19 19 19 18 18 17 17 16 16 16 16 15 15 15 15 14 14 14 13 13 13 12 12 13 13
27 27 26 26 26 25 24 23 22 21 20 20 19 19 19 18 18 18 18 18 18 18 17 17 16 16 15 15 15 16 15 15 14 14 14 14 13 13 12 12 13 12 12
27 27 26 26 25 25 23 22 21 20 20 20 19 19 18 18 17 16 17 17 17 17 17 17 16 15 15 15 15 15 15 15 14 14 13 13 13 13 12 12 12 11 12
27 26 26 26 25 24 23 22 21 20 19 19 19 19 18 17 16 16 16 16 16 16 16 15 15 14 14 14 14 14 15 14 14 13 13 12 12 12 12 12 12 11 12
27 27 26 26 25 24 23 22 21 20 20 20 19 19 18 17 16 16 16 16 16 15 15 15 15 14 14 13 14 14 14 14 13 13 12 12 12 12 12 11 11 11 11
27 27 26 26 25 24 22 21 21 21 20 20 19 19 23 18 17 16 15 15 15 15 14 14 14 14 14 14 14 14 14 13 13 12 12 12 12 12 11 11 11 11 11
27 26 25 25 24 22 22 21 22 21 20 19 18 17 17 16 16 15 15 15 15 15 14 14 14 14 14 14 14 14 14 13 12 12 11 11 11 10 11 11 11 11 10
25 25 24 22 21 21 21 22 20 19 18 18 17 16 16 16 16 15 15 15 15 14 14 14 14 14 14 14 13 13 13 12 12 12 11 11 10 10 10 10 10 10 10
24 23 21 20 20 20 19 19 19 18 17 17 17 16 17 16 16 16 15 15 14 14 14 14 13 13 14 13 13 13 13 12 12 12 12 11 10 10 10 9 9 9 9
22 21 20 20 19 19 19 18 17 17 16 16 17 17 17 16 16 16 16 15 15 15 14 14 14 13 13 13 13 12 12 12 12 11 10 10 10 10 9 9 9 9 9
23 22 20 20 19 19 18 17 16 17 17 16 16 17 17 16 15 16 15 15 15 14 14 13 13 13 13 13 13 12 12 12 11 10 10 9 9 9 9 9 9 9 9
22 21 21 21 18 17 16 17 17 16 15 15 16 15 15 15 15 15 14 14 14 13 13 12 12 12 12 13 12 12 11 11 10 10 9 9 9 9 9 9 9 9 9
22 22 19 16 16 16 16 16 17 17 15 15 15 14 14 14 15 14 14 14 13 13 13 13 13 12 12 12 11 11 10 10 9 9 9 9 9 8 8 8 9 9 9
19 17 18 17 17 17 16 16 16 15 15 15 15 14 14 14 14 14 13 13 13 12 13 12 12 12 12 11 11 10 10 10 10 9 8 8 8 8 8 8 8 9 9
17 17 17 17 17 17 17 17 16 17 16 16 15 15 14 14 14 13 13 13 12 12 12 12 12 11 11 11 10 10 9 9 8 8 8 8 8 8 8 8 8 8 8
18 18 18 18 17 17 17 17 16 17 17 16 16 16 15 15 14 13 13 12 12 12 11 11 11 10 10 9 8 8 8 8 8 8 8 8 7 7 7 7 8 8 8
18 18 18 18 18 17 17 17 16 16 16 16 16 15 15 14 14 13 13 12 12 11 11 11 10 9 9 8 8 8 8 7 7 7 7 7 7 7 7 7 8 8 8
16 15 16 17 16 16 16 17 17 16 16 15 16 15 15 14 13 13 13 13 12 12 12 10 10 9 8 8 8 7 7 7 7 7 7 7 6 6 6 7 7 7 8
14 13 13 14 15 16 17 17 16 15 15 15 15 15 15 14 13 13 13 12 12 12 11 11 10 10 9 8 7 7 7 6 6 6 6 7 6 6 6 7 7 7 7
14 13 13 16 16 16 16 15 15 15 15 15 15 14 14 13 13 12 12 12 12 11 11 10 10 10 9 8 8 7 6 6 6 6 6 7 6 6 6 6 7 7 7
15 15 16 16 16 15 15 15 15 15 14 14 14 14 14 13 12 12 12 12 12 11 10 10 10 9 9 9 8 7 7 6 6 6 7 6 6 5 6 6 6 6 7

GFSGL_850_temp_036.txt.gz
Temp
25 25 24 23 23 22 22 21 21 21 20 20 20 21 21 21 20 21 21 21 20 20 19 18 18 17 17 17 16 16 16 16 16 16 16 16 15 15 15 15 15 15 14
25 25 24 24 23 23 22 22 22 21 21 20 20 20 21 21 20 20 20 21 20 20 19 18 18 18 17 17 16 16 16 16 15 15 16 16 16 15 15 15 15 15 14
26 25 25 24 23 23 23 23 23 22 21 21 21 21 21 21 20 20 20 21 21 20 19 18 18 18 17 17 16 16 16 15 16 15 15 16 15 15 15 15 15 15 14
26 25 25 25 24 24 24 23 23 23 22 22 21 21 20 20 20 20 20 20 21 20 20 18 18 17 17 16 16 16 16 15 15 15 15 15 15 14 14 13 14 14 14
27 26 26 25 25 25 24 24 24 23 23 23 21 21 21 20 20 20 20 20 20 20 19 19 18 17 17 16 16 16 15 15 15 15 15 15 14 14 13 13 13 13 14
27 27 27 26 25 25 25 25 24 24 23 22 22 21 21 21 20 20 20 19 19 19 19 19 18 18 17 16 15 15 15 15 15 15 15 14 14 14 13 12 12 12 12
28 28 27 27 26 26 25 25 25 24 23 22 21 21 20 20 20 20 19 18 18 18 18 18 18 17 16 15 15 15 15 15 15 15 14 14 14 14 13 12 12 11 11
27 26 27 27 27 26 25 24 24 24 23 22 21 21 20 20 19 19 19 18 17 17 17 17 17 17 16 15 15 15 15 15 14 14 14 14 13 13 12 12 11 11 12
26 26 27 27 27 26 25 24 24 23 22 22 21 21 20 20 19 18 18 17 16 16 16 17 17 16 15 15 14 14 14 14 13 13 14 14 13 13 12 11 11 11 11
29 28 27 27 26 26 26 25 23 22 22 22 21 20 20 19 18 18 17 16 16 16 16 16 16 15 15 14 14 13 13 14 13 13 13 13 13 13 12 11 11 10 11
31 30 27 26 26 26 26 24 23 21 21 22 21 21 20 19 18 17 16 16 16 16 16 16 15 15 14 14 13 13 13 13 13 13 13 12 12 11 11 11 10 10 10
30 28 28 27 26 25 24 23 22 22 22 20 21 21 20 18 17 16 16 16 15 15 15 16 15 14 14 13 13 13 13 13 13 12 12 12 12 11 10 10 10 10 10
30 29 27 25 24 24 23 21 21 22 22 21 21 21 20 19 17 17 16 15 15 15 16 15 14 14 14 14 13 13 13 13 13 13 12 11 11 10 10 10 10 10 9
28 27 26 24 23 23 21 21 22 22 22 22 21 20 19 18 16 15 15 15 15 15 15 15 14 13 13 14 14 13 13 13 12 12 12 11 10 10 10 10 9 9 9
24 22 22 22 21 20 20 20 22 22 21 21 20 21 19 19 19 17 15 15 15 15 14 14 13 13 13 14 13 13 13 12 12 11 11 10 9 9 9 9 9 9 9
23 23 24 24 23 21 19 18 20 20 20 18 19 19 17 16 16 16 16 16 15 15 14 14 14 13 13 13 13 12 12 12 11 11 10 10 9 9 9 9 9 9 9
24 24 24 22 20 19 17 17 15 18 18 17 16 15 15 16 16 16 16 15 15 15 14 14 13 13 13 12 12 12 12 11 11 10 10 9 9 9 8 8 8 8 8
22 20 22 21 20 18 19 18 18 16 15 15 15 15 16 15 15 15 15 15 14 13 13 12 12 12 12 12 12 12 11 11 11 10 9 9 9 8 8 8 8 8 8
19 17 19 19 19 18 18 18 15 16 15 15 15 15 15 14 15 15 14 14 13 13 12 12 12 12 12 12 11 11 10 10 9 9 9 8 8 8 8 8 8 8 8
18 19 19 19 18 18 17 16 16 15 15 15 16 16 15 14 14 14 13 13 13 12 12 12 12 12 11 11 10 10 10 9 8 8 8 8 8 7 7 7 7 7 8
18 19 18 18 18 17 17 16 16 16 16 16 16 15 15 15 15 14 13 13 12 12 12 12 12 11 11 10 10 9 9 9 8 8 8 7 7 7 7 7 7 7 8
18 17 17 17 17 17 17 17 17 17 17 17 17 16 15 15 14 14 13 13 12 12 12 12 11 11 10 9 9 8 8 8 8 7 7 7 7 7 7 7 7 7 7
16 16 16 16 16 16 16 16 16 16 16 16 16 15 15 14 14 13 13 13 13 12 11 11 11 11 10 9 8 8 8 8 7 7 7 7 7 6 6 6 7 7 7
16 16 15 15 16 16 16 15 15 15 16 16 15 15 15 14 14 13 13 13 12 12 11 11 11 10 10 9 9 8 8 8 7 7 7 7 7 6 6 6 6 7 7
15 15 15 16 15 14 13 14 15 16 16 15 15 14 14 14 13 13 13 13 12 12 12 11 10 10 10 10 9 8 8 7 7 6 7 7 7 6 6 6 6 6 7
15 15 15 14 14 13 14 15 15 15 15 15 15 15 15 14 14 13 13 12 12 12 12 12 11 10 10 10 9 8 8 7 7 7 7 7 7 6 6 6 6 6 6

GFSGL_850_temp_042.txt.gz
Temp
26 25 25 24 24 23 23 23 22 21 21 21 21 20 20 20 20 20 20 20 20 20 20 20 20 19 19 18 17 16 16 16 16 16 16 15 15 15 15 15 15 15 15
26 26 26 25 25 24 24 23 23 22 22 21 21 20 20 20 21 21 22 21 20 20 20 20 20 19 19 19 18 17 17 16 16 16 16 16 15 15 15 15 15 15 15
25 25 25 25 25 25 24 24 24 23 22 22 21 21 20 21 20 21 21 21 20 20 20 20 20 19 19 19 18 17 17 16 16 16 15 16 15 15 15 15 15 15 15
26 25 26 26 26 26 26 25 24 24 23 22 21 21 20 21 20 20 20 20 20 20 20 19 19 19 19 19 18 18 17 16 16 16 16 15 15 15 15 15 15 15 14
26 25 26 26 26 26 26 25 25 24 23 23 22 21 21 20 20 20 20 20 20 20 20 20 19 18 17 18 17 17 16 16 15 16 15 15 15 14 14 14 14 14 14
28 29 28 26 26 26 26 25 26 25 24 23 23 22 21 21 21 20 20 20 20 20 20 20 19 18 16 17 17 16 16 15 15 15 15 15 15 14 14 13 13 13 13
29 29 28 27 27 27 26 25 26 26 25 24 24 23 22 22 21 21 20 20 20 20 20 20 19 17 17 17 17 16 16 15 15 15 14 14 14 14 14 14 13 12 12
28 28 27 27 27 26 26 26 26 26 25 25 25 24 23 23 22 22 21 20 20 20 20 19 19 17 17 16 16 16 15 15 15 15 14 14 14 14 13 13 13 12 12
27 26 27 28 27 26 25 27 26 25 26 26 25 24 24 23 23 22 21 20 20 19 19 19 19 17 18 16 17 15 15 15 15 14 14 14 13 13 12 12 12 11 11
30 31 30 29 28 27 28 27 26 25 25 25 25 25 25 24 23 22 21 20 20 19 19 19 17 19 17 15 16 15 15 15 14 14 14 13 12 12 12 12 11 11 10
31 30 29 28 27 27 25 25 24 22 22 23 23 22 23 24 23 22 21 20 20 19 19 17 17 19 17 15 15 15 15 14 13 13 13 13 13 12 12 12 11 10 10
29 29 29 28 27 26 25 25 25 25 25 23 21 20 19 21 22 21 19 19 19 19 19 17 16 16 16 15 15 15 14 14 13 13 13 13 12 12 12 11 10 10 10
26 25 25 24 23 23 24 23 21 19 19 19 19 18 18 19 22 21 19 19 18 17 17 16 15 16 15 15 14 14 14 14 14 13 13 12 12 12 11 11 10 10 9
26 25 25 24 22 21 20 19 19 18 19 18 18 18 18 18 19 19 19 16 16 16 15 17 16 15 14 14 14 14 14 14 14 13 12 12 12 12 11 10 10 9 9
27 27 26 24 23 22 21 19 18 19 18 19 19 18 17 17 16 17 15 16 15 16 16 19 15 14 14 14 14 14 14 14 13 13 13 12 12 11 10 10 9 9 9
26 25 24 22 21 20 19 18 18 18 18 18 17 15 14 13 14 16 14 13 14 15 15 15 15 14 14 14 13 13 13 13 13 13 12 12 11 10 10 9 9 8 8
23 22 21 19 19 18 18 17 16 15 16 16 17 16 15 14 15 15 15 15 14 15 15 15 14 14 14 14 13 13 13 13 12 12 12 11 11 10 10 9 8 8 8
20 19 18 18 18 17 17 17 17 17 17 17 17 16 19 17 13 14 18 13 14 14 15 14 14 14 14 13 13 13 13 12 12 12 11 11 10 10 9 8 8 7 7
19 19 18 17 17 17 16 16 17 17 18 17 17 16 17 15 14 14 14 14 15 15 14 14 14 14 13 13 13 12 12 12 12 11 11 10 10 9 8 8 7 7 7
18 17 18 17 15 15 16 17 16 17 14 15 16 13 16 14 13 14 14 14 15 15 15 14 13 13 13 13 12 12 12 12 11 10 10 9 8 8 7 7 7 7 7
17 16 16 15 15 15 16 16 15 14 16 15 14 14 14 14 14 14 14 14 14 14 13 13 13 13 12 12 12 11 11 10 9 9 9 8 8 7 7 7 7 7 7
16 16 16 16 16 16 16 15 15 15 15 15 15 14 13 14 15 15 15 14 13 13 13 12 12 12 11 11 11 10 9 9 9 9 8 8 7 7 7 7 7 7 7
16 16 16 16 16 16 16 16 16 15 15 15 14 14 14 14 14 14 13 13 13 13 12 12 11 11 10 10 9 9 9 9 8 8 7 7 7 7 7 7 7 7 7
16 16 16 16 15 15 15 15 16 15 14 14 14 14 15 15 14 14 13 13 13 12 12 11 11 10 10 10 9 9 8 8 8 7 7 6 6 7 7 7 7 7 7
15 16 16 15 15 15 13 13 13 14 14 15 15 13 13 13 14 14 14 13 13 12 12 11 11 10 10 10 9 9 8 8 7 7 6 6 6 7 7 7 7 7 6
14 14 14 14 13 13 12 12 12 12 12 13 13 13 13 12 12 13 13 13 13 12 12 11 11 10 10 10 9 9 9 8 8 8 7 7 6 6 7 7 7 6 6

GFSGL_850_temp_045.txt.gz
Temp
26 26 25 25 24 24 23 23 23 22 21 21 21 21 21 21 20 20 20 20 20 20 20 20 20 20 19 19 18 17 17 17 16 16 16 16 16 16 16 16 15 15 15
27 27 26 26 26 25 24 24 24 23 22 21 21 21 21 21 21 20 20 20 20 20 21 21 20 20 20 19 19 19 18 17 16 16 15 16 16 16 15 15 15 15 15
26 27 27 27 26 26 26 25 24 24 23 22 21 21 21 21 21 21 20 20 21 21 21 21 21 20 20 20 19 19 18 17 17 16 15 16 16 16 15 15 15 15 15
27 26 27 27 27 27 27 26 25 25 24 23 22 22 22 21 21 21 21 20 20 21 20 20 20 20 20 20 19 18 18 17 17 16 15 15 16 16 16 15 14 14 15
26 26 28 28 27 27 27 26 26 25 25 24 23 23 22 22 22 21 21 21 20 20 20 20 20 20 19 19 18 18 17 17 16 15 14 14 14 15 15 14 15 15 15
28 29 29 27 27 27 27 26 26 26 25 25 24 24 23 23 23 22 21 21 20 20 20 20 20 19 19 19 17 17 17 17 16 15 15 14 15 15 14 14 14 14 14
28 29 28 27 27 27 26 26 26 26 25 25 25 24 24 23 23 23 22 21 21 20 20 20 19 20 19 18 17 17 17 16 16 15 15 15 15 15 14 14 14 13 12
27 27 27 27 27 25 24 26 26 26 26 26 25 25 24 24 24 23 23 22 21 20 20 20 19 19 19 19 17 17 16 16 16 15 15 15 15 14 14 14 13 13 12
28 28 28 28 28 26 26 27 27 24 25 26 26 25 25 25 25 25 24 22 22 21 20 20 20 20 19 19 18 15 15 15 16 15 15 14 14 14 14 13 12 13 11
29 30 29 28 28 27 28 27 26 25 25 24 24 24 25 24 25 25 24 23 22 21 20 20 20 19 18 19 19 15 15 15 15 15 15 14 14 14 13 12 11 11 12
31 29 29 27 27 26 23 22 22 20 18 21 23 24 24 25 24 24 24 22 21 21 21 21 21 19 19 18 18 17 15 15 15 14 14 14 14 13 13 13 12 11 11
29 28 27 26 25 24 24 23 22 20 20 20 18 18 20 23 20 19 19 20 20 18 21 22 21 19 18 16 16 17 16 14 14 14 14 13 12 13 12 12 12 11 11
27 27 26 25 25 24 23 22 19 21 21 24 21 19 18 18 18 18 18 18 18 17 17 17 20 18 17 17 16 17 16 14 14 13 12 12 12 12 12 12 11 11 10
27 27 27 27 26 24 22 20 19 18 19 19 22 19 19 19 18 18 18 18 18 16 16 14 15 15 15 15 17 15 15 14 13 13 13 11 13 12 12 11 10 10 10
25 25 25 23 23 22 21 20 19 20 19 19 19 19 18 19 19 18 18 18 17 15 14 15 13 14 14 15 16 16 15 14 13 13 12 13 12 12 11 11 11 10 10
25 25 25 23 22 21 21 20 18 18 18 18 18 18 19 18 18 17 17 15 15 16 17 13 15 13 14 14 15 15 14 14 13 13 13 12 12 11 10 11 10 10 9
24 24 23 21 21 20 19 19 19 17 17 18 18 16 15 15 16 17 17 17 17 18 18 15 15 13 14 15 14 14 14 14 13 13 13 12 11 11 11 10 10 9 8
22 22 21 21 20 19 19 18 18 18 17 16 15 15 14 15 15 15 15 14 13 13 14 14 15 13 13 13 13 13 13 13 13 13 11 11 11 11 11 10 9 9 8
19 18 18 17 17 17 17 17 16 16 16 17 16 15 13 13 13 12 13 13 13 13 13 13 14 14 14 14 13 13 13 13 12 12 11 11 11 11 9 9 8 8 8
17 17 17 17 16 16 16 15 15 15 15 15 15 14 13 13 12 12 12 12 13 13 13 13 13 14 14 14 13 13 12 12 12 12 12 11 11 10 9 8 8 8 7
18 17 16 16 15 15 15 15 15 16 16 15 14 13 13 13 12 13 13 13 13 13 13 14 14 14 13 13 12 12 12 12 12 11 11 11 10 9 8 8 8 7 7
16 16 16 15 16 15 16 16 16 16 16 16 15 15 13 14 13 13 14 14 14 14 14 14 13 13 12 12 12 12 12 11 11 11 10 10 9 8 7 7 7 7 7
16 16 15 15 15 15 15 15 15 14 14 15 14 14 13 13 13 13 13 13 13 13 13 13 12 12 12 11 11 11 11 10 10 10 10 9 8 7 7 7 7 7 7
16 16 15 15 15 15 15 15 15 15 14 13 13 13 13 14 14 14 13 13 13 13 12 12 12 11 11 11 11 11 10 9 9 9 9 8 7 7 7 7 7 7 7
15 15 15 15 15 14 14 13 13 12 13 14 14 13 13 14 14 13 13 13 13 12 12 11 11 11 11 11 10 10 10 9 9 9 8 7 6 7 6 6 6 6 6
12 13 13 12 12 13 13 13 13 12 12 12 12 12 12 12 13 13 13 13 12 12 12 12 11 11 10 10 10 10 9 9 9 8 8 7 7 6 6 6 6 6 6

GFSGL_850_temp_048.txt.gz
Temp
26 25 25 25 25 25 24 24 23 23 22 22 20 21 21 20 21 21 20 19 20 21 20 20 21 20 18 18 18 18 18 18 19 20 18 17 17 16 16 16 15 15 16
25 26 26 26 25 25 25 25 24 24 23 23 22 21 21 20 20 21 21 19 19 20 20 20 20 20 21 19 17 18 18 18 18 18 18 17 16 15 15 15 15 16 16
22 23 26 27 26 26 26 26 25 25 24 24 23 22 22 22 21 21 21 21 20 20 20 21 21 20 21 18 19 17 17 17 17 17 18 17 17 16 15 15 14 15 15
23 22 24 27 27 27 27 27 26 26 25 24 24 23 23 22 22 22 20 21 21 20 19 20 21 21 21 21 20 20 19 17 16 16 17 18 16 16 15 16 16 15 15
24 23 26 28 28 27 27 27 26 26 26 26 25 24 23 23 22 22 22 22 22 21 20 20 21 21 21 20 20 20 20 19 17 17 17 18 17 17 15 16 16 16 16
24 26 29 27 27 28 27 26 26 26 26 26 25 25 24 24 23 22 23 23 23 21 21 21 20 21 21 20 20 19 18 19 18 17 18 18 17 16 16 16 15 15 15
24 25 26 25 26 27 26 25 26 26 24 26 26 26 25 25 24 23 23 23 23 22 22 21 21 19 21 20 20 18 18 18 17 17 17 17 16 15 15 14 14 14 14
26 25 25 25 25 25 25 26 26 25 25 25 26 26 25 25 25 24 23 23 23 22 21 22 21 20 20 20 20 20 19 18 17 16 15 15 15 15 15 14 14 13 13
25 28 27 26 26 26 27 27 25 22 21 19 19 20 21 21 23 24 24 23 23 21 19 20 21 21 20 21 20 20 19 18 17 15 16 15 16 15 15 13 13 13 13
29 30 28 28 27 27 27 24 22 21 20 20 19 19 19 19 19 19 19 18 19 18 19 19 20 22 21 21 20 19 18 17 15 15 15 15 16 15 15 14 13 13 13
27 26 26 26 27 26 24 22 21 20 20 20 22 21 21 23 24 24 22 19 20 19 19 19 18 18 19 21 21 19 19 17 16 15 15 15 15 15 15 14 12 13 14
26 24 26 26 25 23 25 21 20 19 19 20 22 24 26 28 29 29 27 18 18 18 19 20 18 19 19 17 17 16 17 16 16 15 13 14 14 14 13 12 12 12 12
25 24 24 25 24 23 21 21 19 19 20 19 19 20 19 22 27 24 24 20 19 18 17 18 18 19 16 16 17 13 15 15 15 14 14 13 13 13 13 12 12 13 12
24 24 25 25 23 22 20 20 20 20 20 20 21 21 21 23 20 22 21 19 18 18 17 17 17 16 16 17 15 15 13 13 14 14 13 13 13 13 12 11 12 11 11
25 25 23 22 25 21 21 22 21 21 21 21 21 22 22 21 21 22 21 20 19 18 16 16 16 15 16 15 17 15 15 14 13 14 13 13 12 12 12 12 12 12 11
23 22 22 23 21 20 21 21 21 20 20 20 20 20 20 20 21 19 19 19 18 18 15 15 15 16 16 16 14 13 13 14 13 13 13 13 13 13 13 12 12 12 12
22 22 22 21 22 23 21 19 20 20 19 18 19 18 18 18 17 16 17 17 16 16 14 14 15 15 12 13 14 14 14 13 13 13 13 13 13 13 12 12 11 11 11
23 23 22 23 20 18 18 17 18 19 18 17 17 17 15 16 16 17 16 15 14 13 14 14 14 13 13 13 12 13 13 13 13 13 13 13 12 12 11 12 12 11 11
21 21 21 20 19 18 17 16 15 16 14 16 15 15 16 16 15 13 13 13 14 13 13 13 13 13 13 13 13 13 12 12 12 12 12 12 12 12 12 12 12 11 11
19 18 18 17 17 17 17 16 16 16 16 15 15 14 15 14 13 12 12 12 12 12 13 13 13 13 13 13 13 13 12 12 11 12 12 12 12 12 12 12 12 11 10
16 16 16 15 16 16 16 16 15 15 15 14 13 14 13 13 13 12 12 12 13 13 12 13 13 13 12 12 12 12 12 12 12 12 13 12 12 12 12 11 11 11 11
15 16 15 16 16 16 15 15 14 14 15 15 14 14 12 12 12 12 13 12 12 12 12 12 12 12 12 12 12 13 13 13 12 12 12 12 11 11 11 11 11 11 11
16 16 16 15 14 15 14 15 15 14 14 14 14 14 13 13 13 13 13 12 12 13 12 12 12 12 12 12 12 12 12 12 12 12 11 11 11 11 11 11 11 11 11
16 16 16 15 15 16 15 15 13 14 14 13 13 13 13 13 13 13 13 12 12 12 12 12 12 12 12 11 11 11 12 11 11 10 10 10 10 10 10 10 10 10 10
15 14 14 14 14 14 14 14 13 12 13 12 12 13 14 14 14 13 13 13 12 12 12 12 12 11 12 12 11 11 10 10 9 9 9 9 10 9 10 10 10 10 9
13 13 12 12 12 11 11 12 12 11 11 12 11 12 12 14 14 13 13 13 12 12 12 12 12 11 10 10 10 10 10 10 9 9 9 9 9 9 9 9 9 9 9